Location: Clayton (historical)
(34.0300°N, 118.0259°W)
Time: 23:30:39
(UTC+00:00)

Envisat - Pass Details

Date: 23 January 2021
Orbit: 764 x 766 km, 98.1° (Epoch: 06 March)

Event Time Altitude Azimuth Distance (km) Brightness Sun altitude
Rises 14:11:46 0° 2° (N) 3,237 6.1 -9.1°
Reaches altitude 10° 14:14:12 10° 354° (N) 2,307 5.3 -8.6°
Maximum altitude 14:18:51 37° 288° (WNW) 1,169 3.5 -7.7°
Drops below altitude 10° 14:23:29 10° 222° (SW) 2,293 5.2 -6.8°
Sets 14:25:54 0° 214° (SW) 3,215 6.1 -6.3°
